Time,TemperatureF,DewpointF,PressureIn,WindDirection,WindDirectionDegrees,WindSpeedMPH,WindSpeedGustMPH,Humidity,HourlyPrecipIn,Conditions,Clouds,dailyrainin,SoftwareType,DateUTC
2013-05-13 00:11:00,46.3,38.0,30.11,West,279,0.0,-999.0,73,-99.99,,,0.01,weatherlink.com 1.10,2013-05-13 04:11:00,
2013-05-13 00:26:00,46.0,37.0,30.11,SW,230,1.0,-999.0,70,-99.99,,,0.00,weatherlink.com 1.10,2013-05-13 04:26:00,
2013-05-13 00:41:00,45.8,37.0,30.12,SW,230,0.0,-999.0,71,-99.99,,,0.00,weatherlink.com 1.10,2013-05-13 04:41:00,
2013-05-13 00:56:00,45.9,34.0,30.12,SW,230,0.0,-999.0,64,-99.99,,,0.00,weatherlink.com 1.10,2013-05-13 04:56:00,
2013-05-13 01:11:00,46.1,35.0,30.12,WSW,254,0.0,-999.0,65,-99.99,,,0.00,weatherlink.com 1.10,2013-05-13 05:11:00,
2013-05-13 01:26:00,46.0,38.0,30.12,West,260,0.0,-999.0,73,-99.99,,,0.00,weatherlink.com 1.10,2013-05-13 05:26:00,
2013-05-13 01:41:00,45.7,34.0,30.12,West,260,0.0,-999.0,64,-99.99,,,0.00,weatherlink.com 1.10,2013-05-13 05:41:00,
2013-05-13 01:56:00,45.5,36.0,30.12,SW,229,0.0,-999.0,69,-99.99,,,0.00,weatherlink.com 1.10,2013-05-13 05:56:00,
2013-05-13 02:11:00,45.8,35.0,30.11,West,273,1.0,-999.0,65,-99.99,,,0.00,weatherlink.com 1.10,2013-05-13 06:11:00,
2013-05-13 02:26:00,46.2,34.0,30.11,WSW,238,0.0,-999.0,63,-99.99,,,0.00,weatherlink.com 1.10,2013-05-13 06:26:00,
2013-05-13 02:41:00,46.2,35.0,30.12,WNW,290,0.0,-999.0,66,-99.99,,,0.00,weatherlink.com 1.10,2013-05-13 06:41:00,
2013-05-13 02:56:00,46.1,34.0,30.12,NNW,333,2.0,-999.0,62,-99.99,,,0.00,weatherlink.com 1.10,2013-05-13 06:56:00,
2013-05-13 03:11:00,46.0,34.0,30.12,NW,313,0.0,-999.0,64,-99.99,,,0.00,weatherlink.com 1.10,2013-05-13 07:11:00,
2013-05-13 03:26:00,45.7,34.0,30.12,NNW,329,0.0,-999.0,64,-99.99,,,0.00,weatherlink.com 1.10,2013-05-13 07:26:00,
2013-05-13 03:41:00,45.4,34.0,30.12,NE,40,0.0,-999.0,65,-99.99,,,0.00,weatherlink.com 1.10,2013-05-13 07:41:00,
2013-05-13 03:56:00,45.3,33.0,30.12,WNW,284,1.0,-999.0,63,-99.99,,,0.00,weatherlink.com 1.10,2013-05-13 07:56:00,
2013-05-13 04:11:00,44.9,35.0,30.13,SW,233,0.0,-999.0,68,-99.99,,,0.00,weatherlink.com 1.10,2013-05-13 08:11:00,
2013-05-13 04:26:00,44.5,36.0,30.14,SW,234,0.0,-999.0,71,-99.99,,,0.00,weatherlink.com 1.10,2013-05-13 08:26:00,
2013-05-13 04:41:00,44.3,34.0,30.14,SW,234,0.0,-999.0,67,-99.99,,,0.00,weatherlink.com 1.10,2013-05-13 08:41:00,
2013-05-13 04:56:00,43.8,36.0,30.15,SW,234,0.0,-999.0,73,-99.99,,,0.00,weatherlink.com 1.10,2013-05-13 08:56:00,
2013-05-13 05:11:00,43.2,34.0,30.15,SW,234,0.0,-999.0,70,-99.99,,,0.00,weatherlink.com 1.10,2013-05-13 09:11:00,
2013-05-13 05:26:00,42.9,34.0,30.15,SW,234,0.0,-999.0,71,-99.99,,,0.00,weatherlink.com 1.10,2013-05-13 09:26:00,
2013-05-13 05:41:00,42.6,35.0,30.15,South,190,0.0,-999.0,74,-99.99,,,0.00,weatherlink.com 1.10,2013-05-13 09:41:00,
2013-05-13 05:56:00,42.4,34.0,30.16,South,190,0.0,-999.0,73,-99.99,,,0.00,weatherlink.com 1.10,2013-05-13 09:56:00,
2013-05-13 06:11:00,42.3,34.0,30.16,South,190,0.0,-999.0,73,-99.99,,,0.00,weatherlink.com 1.10,2013-05-13 10:11:00,
2013-05-13 06:26:00,42.2,34.0,30.16,South,190,0.0,-999.0,73,-99.99,,,0.00,weatherlink.com 1.10,2013-05-13 10:26:00,
2013-05-13 06:41:00,42.1,34.0,30.18,South,190,2.0,-999.0,74,-99.99,,,0.00,weatherlink.com 1.10,2013-05-13 10:41:00,
2013-05-13 06:56:00,42.2,35.0,30.18,South,190,0.0,-999.0,75,-99.99,,,0.00,weatherlink.com 1.10,2013-05-13 10:56:00,
2013-05-13 07:11:00,42.0,34.0,30.19,South,190,0.0,-999.0,73,-99.99,,,0.00,weatherlink.com 1.10,2013-05-13 11:11:00,
2013-05-13 07:26:00,42.4,35.0,30.20,South,190,0.0,-999.0,75,-99.99,,,0.00,weatherlink.com 1.10,2013-05-13 11:26:00,
2013-05-13 07:41:00,42.8,35.0,30.20,South,190,0.0,-999.0,74,-99.99,,,0.00,weatherlink.com 1.10,2013-05-13 11:41:00,
2013-05-13 07:56:00,43.2,35.0,30.20,WSW,255,0.0,-999.0,73,-99.99,,,0.00,weatherlink.com 1.10,2013-05-13 11:56:00,
2013-05-13 08:11:00,44.3,36.0,30.21,NNW,333,0.0,-999.0,72,-99.99,,,0.00,weatherlink.com 1.10,2013-05-13 12:11:00,
2013-05-13 08:26:00,45.2,36.0,30.21,NNW,327,0.0,-999.0,70,-99.99,,,0.00,weatherlink.com 1.10,2013-05-13 12:26:00,
2013-05-13 08:41:00,46.3,36.0,30.22,WSW,241,1.0,-999.0,67,-99.99,,,0.00,weatherlink.com 1.10,2013-05-13 12:41:00,
2013-05-13 08:56:00,47.4,35.0,30.22,NNW,333,0.0,-999.0,63,-99.99,,,0.00,weatherlink.com 1.10,2013-05-13 12:56:00,
2013-05-13 09:11:00,48.1,35.0,30.22,NW,325,0.0,-999.0,62,-99.99,,,0.00,weatherlink.com 1.10,2013-05-13 13:11:00,
2013-05-13 09:26:00,48.6,35.0,30.22,WSW,253,0.0,-999.0,59,-99.99,,,0.00,weatherlink.com 1.10,2013-05-13 13:26:00,
2013-05-13 09:41:00,49.2,35.0,30.23,West,275,0.0,-999.0,59,-99.99,,,0.00,weatherlink.com 1.10,2013-05-13 13:41:00,
2013-05-13 09:56:00,50.1,36.0,30.22,NE,54,0.0,-999.0,58,-99.99,,,0.00,weatherlink.com 1.10,2013-05-13 13:56:00,
2013-05-13 10:11:00,51.2,36.0,30.22,NE,48,0.0,-999.0,57,-99.99,,,0.00,weatherlink.com 1.10,2013-05-13 14:11:00,
2013-05-13 10:26:00,52.9,36.0,30.22,WSW,257,3.0,-999.0,53,-99.99,,,0.00,weatherlink.com 1.10,2013-05-13 14:26:00,
2013-05-13 10:41:00,54.2,36.0,30.22,ENE,69,6.0,-999.0,50,-99.99,,,0.00,weatherlink.com 1.10,2013-05-13 14:41:00,
2013-05-13 10:56:00,55.6,35.0,30.23,NW,306,1.0,-999.0,46,-99.99,,,0.00,weatherlink.com 1.10,2013-05-13 14:56:00,
2013-05-13 11:11:00,57.2,37.0,30.23,NW,323,3.0,-999.0,47,-99.99,,,0.00,weatherlink.com 1.10,2013-05-13 15:11:00,
2013-05-13 11:26:00,57.7,37.0,30.23,West,279,0.0,-999.0,46,-99.99,,,0.00,weatherlink.com 1.10,2013-05-13 15:26:00,
2013-05-13 11:41:00,57.7,36.0,30.23,NW,309,2.0,-999.0,44,-99.99,,,0.00,weatherlink.com 1.10,2013-05-13 15:41:00,
2013-05-13 11:56:00,58.2,36.0,30.22,South,180,0.0,-999.0,43,-99.99,,,0.00,weatherlink.com 1.10,2013-05-13 15:56:00,
2013-05-13 12:11:00,59.8,33.0,30.22,West,280,1.0,-999.0,36,-99.99,,,0.00,weatherlink.com 1.10,2013-05-13 16:11:00,
2013-05-13 12:26:00,59.3,36.0,30.22,NE,47,1.0,-999.0,42,-99.99,,,0.00,weatherlink.com 1.10,2013-05-13 16:26:00,
2013-05-13 12:41:00,60.9,36.0,30.21,WNW,286,4.0,-999.0,40,-99.99,,,0.00,weatherlink.com 1.10,2013-05-13 16:41:00,
2013-05-13 12:56:00,61.0,35.0,30.20,North,5,0.0,-999.0,38,-99.99,,,0.00,weatherlink.com 1.10,2013-05-13 16:56:00,
2013-05-13 13:11:00,61.8,35.0,30.20,SSE,159,0.0,-999.0,37,-99.99,,,0.00,weatherlink.com 1.10,2013-05-13 17:11:00,
2013-05-13 13:26:00,62.4,34.0,30.19,NNW,329,3.0,-999.0,34,-99.99,,,0.00,weatherlink.com 1.10,2013-05-13 17:26:00,
2013-05-13 13:41:00,63.2,34.0,30.19,WNW,301,3.0,-999.0,34,-99.99,,,0.00,weatherlink.com 1.10,2013-05-13 17:41:00,
2013-05-13 13:56:00,63.2,33.0,30.18,North,5,0.0,-999.0,32,-99.99,,,0.00,weatherlink.com 1.10,2013-05-13 17:56:00,
2013-05-13 14:11:00,63.9,35.0,30.17,NW,317,0.0,-999.0,34,-99.99,,,0.00,weatherlink.com 1.10,2013-05-13 18:11:00,
2013-05-13 14:26:00,64.5,35.0,30.17,NW,315,4.0,-999.0,33,-99.99,,,0.00,weatherlink.com 1.10,2013-05-13 18:26:00,
2013-05-13 14:41:00,65.0,33.0,30.16,North,5,3.0,-999.0,30,-99.99,,,0.00,weatherlink.com 1.10,2013-05-13 18:41:00,
2013-05-13 14:56:00,64.8,34.0,30.16,East,79,3.0,-999.0,32,-99.99,,,0.00,weatherlink.com 1.10,2013-05-13 18:56:00,
2013-05-13 15:11:00,64.2,34.0,30.15,North,351,0.0,-999.0,32,-99.99,,,0.00,weatherlink.com 1.10,2013-05-13 19:11:00,
2013-05-13 15:26:00,64.8,32.0,30.15,ESE,111,0.0,-999.0,29,-99.99,,,0.00,weatherlink.com 1.10,2013-05-13 19:26:00,
2013-05-13 15:41:00,64.5,34.0,30.15,East,92,2.0,-999.0,32,-99.99,,,0.00,weatherlink.com 1.10,2013-05-13 19:41:00,
2013-05-13 15:56:00,65.0,35.0,30.14,NNW,334,0.0,-999.0,33,-99.99,,,0.00,weatherlink.com 1.10,2013-05-13 19:56:00,
2013-05-13 16:11:00,64.0,36.0,30.13,NNE,19,3.0,-999.0,35,-99.99,,,0.00,weatherlink.com 1.10,2013-05-13 20:11:00,
2013-05-13 16:26:00,64.0,36.0,30.13,South,178,2.0,-999.0,35,-99.99,,,0.00,weatherlink.com 1.10,2013-05-13 20:26:00,
2013-05-13 16:41:00,63.1,33.0,30.13,WNW,301,2.0,-999.0,32,-99.99,,,0.00,weatherlink.com 1.10,2013-05-13 20:41:00,
2013-05-13 16:56:00,63.2,33.0,30.13,WNW,292,0.0,-999.0,33,-99.99,,,0.00,weatherlink.com 1.10,2013-05-13 20:56:00,
2013-05-13 17:11:00,62.7,34.0,30.13,ESE,103,0.0,-999.0,34,-99.99,,,0.00,weatherlink.com 1.10,2013-05-13 21:11:00,
2013-05-13 17:26:00,61.7,33.0,30.14,WNW,289,2.0,-999.0,34,-99.99,,,0.00,weatherlink.com 1.10,2013-05-13 21:26:00,
2013-05-13 17:41:00,60.8,32.0,30.14,NE,38,2.0,-999.0,34,-99.99,,,0.00,weatherlink.com 1.10,2013-05-13 21:41:00,
2013-05-13 17:56:00,60.4,32.0,30.14,NNW,337,0.0,-999.0,34,-99.99,,,0.00,weatherlink.com 1.10,2013-05-13 21:56:00,
2013-05-13 18:11:00,60.3,32.0,30.14,WNW,292,5.0,-999.0,35,-99.99,,,0.00,weatherlink.com 1.10,2013-05-13 22:11:00,
2013-05-13 18:26:00,59.9,31.0,30.14,NW,319,0.0,-999.0,33,-99.99,,,0.00,weatherlink.com 1.10,2013-05-13 22:26:00,
2013-05-13 18:42:00,59.6,30.0,30.14,North,350,1.0,-999.0,33,-99.99,,,0.00,weatherlink.com 1.10,2013-05-13 22:42:00,
2013-05-13 18:57:00,59.0,33.0,30.14,NW,304,0.0,-999.0,37,-99.99,,,0.00,weatherlink.com 1.10,2013-05-13 22:57:00,
2013-05-13 19:12:00,58.6,32.0,30.14,NE,42,0.0,-999.0,37,-99.99,,,0.00,weatherlink.com 1.10,2013-05-13 23:12:00,
2013-05-13 19:27:00,57.8,31.0,30.15,NNE,30,2.0,-999.0,36,-99.99,,,0.00,weatherlink.com 1.10,2013-05-13 23:27:00,
2013-05-13 19:42:00,57.3,34.0,30.15,WNW,299,0.0,-999.0,42,-99.99,,,0.00,weatherlink.com 1.10,2013-05-13 23:42:00,
2013-05-13 19:57:00,56.6,32.0,30.16,East,87,0.0,-999.0,40,-99.99,,,0.00,weatherlink.com 1.10,2013-05-13 23:57:00,
2013-05-13 20:11:00,55.9,33.0,30.16,NE,49,0.0,-999.0,42,-99.99,,,0.00,weatherlink.com 1.10,2013-05-14 00:11:00,
2013-05-13 20:26:00,55.3,32.0,30.17,East,81,0.0,-999.0,41,-99.99,,,0.00,weatherlink.com 1.10,2013-05-14 00:26:00,
2013-05-13 20:42:00,54.5,32.0,30.18,NE,47,0.0,-999.0,43,-99.99,,,0.00,weatherlink.com 1.10,2013-05-14 00:42:00,
2013-05-13 20:57:00,53.9,34.0,30.19,NE,47,0.0,-999.0,47,-99.99,,,0.00,weatherlink.com 1.10,2013-05-14 00:57:00,
2013-05-13 21:12:00,53.0,35.0,30.20,NE,47,0.0,-999.0,51,-99.99,,,0.00,weatherlink.com 1.10,2013-05-14 01:12:00,
2013-05-13 21:27:00,51.7,36.0,30.20,NE,47,0.0,-999.0,56,-99.99,,,0.00,weatherlink.com 1.10,2013-05-14 01:27:00,
2013-05-13 21:42:00,50.7,37.0,30.21,NE,47,0.0,-999.0,59,-99.99,,,0.00,weatherlink.com 1.10,2013-05-14 01:42:00,
2013-05-13 21:57:00,49.7,37.0,30.21,NE,47,0.0,-999.0,61,-99.99,,,0.00,weatherlink.com 1.10,2013-05-14 01:57:00,
2013-05-13 22:12:00,48.9,37.0,30.21,ESE,109,0.0,-999.0,64,-99.99,,,0.00,weatherlink.com 1.10,2013-05-14 02:12:00,
2013-05-13 22:27:00,48.4,37.0,30.22,ESE,109,0.0,-999.0,65,-99.99,,,0.00,weatherlink.com 1.10,2013-05-14 02:27:00,
2013-05-13 22:42:00,47.6,38.0,30.23,ESE,109,0.0,-999.0,69,-99.99,,,0.00,weatherlink.com 1.10,2013-05-14 02:42:00,
2013-05-13 22:57:00,46.6,38.0,30.23,ESE,109,0.0,-999.0,71,-99.99,,,0.00,weatherlink.com 1.10,2013-05-14 02:57:00,
2013-05-13 23:12:00,45.8,38.0,30.24,ESE,109,0.0,-999.0,74,-99.99,,,0.00,weatherlink.com 1.10,2013-05-14 03:12:00,
2013-05-13 23:27:00,45.1,37.0,30.24,ESE,109,0.0,-999.0,74,-99.99,,,0.00,weatherlink.com 1.10,2013-05-14 03:27:00,
2013-05-13 23:42:00,44.4,37.0,30.25,ESE,109,0.0,-999.0,74,-99.99,,,0.00,weatherlink.com 1.10,2013-05-14 03:42:00,
2013-05-13 23:57:00,44.1,37.0,30.25,ESE,109,0.0,-999.0,75,-99.99,,,0.00,weatherlink.com 1.10,2013-05-14 03:57:00,